Location: ????????
(55.4000°N, 39.1167°E)
Time: 02:37:41
(UTC+00:00)

Cosmos 1151 Rocket - Pass Details

Date: 19 May 2025
Orbit: 585 x 607 km, 82.5° (Epoch: 14 June)

Event Time Altitude Azimuth Distance (km) Brightness Sun altitude
Exits shadow 20:42:51 23° 154° (SSE) 1,269 4.1 -14.2°
Maximum altitude 20:45:06 44° 94° (E) 817 3.6 -14.3°
Drops below altitude 10° 20:49:08 10° 22° (NNE) 1,924 6.5 -14.3°
Sets 20:51:25 0° 16° (NNE) 2,830 7.8 -14.4°
